When you browse on this site, cookies collect data to enhance your experience and personalize the content and advertising you see.
Visit our Privacy Policy to learn more. By continuing to use the site, you agree to this use of cookies and data.
  • In Hungary
  • List of Countries
  • For 7 days
  • Water Temperature
  • Satellite Maps
  • Weather Map
  • News
  • Weather Widgets
  • user-avatar
    Login

    Hourly Weather Angri

    Today, 13 December, Thursday

    Time Temperature Precipitation Wind Pressure Humidity
    00:00 +8°C° 0.1 mm 3 mps 760 mmHg 54%
    01:00 +8°C° 0.1 mm 3 mps 760 mmHg 55%
    02:00 +8°C° 0 mm 3 mps 759 mmHg 56%
    03:00 +7°C° 0 mm 4 mps 759 mmHg 57%
    04:00 +7°C° 0 mm 4 mps 758 mmHg 58%
    05:00 +8°C° 0.1 mm 3 mps 758 mmHg 59%
    06:00 +8°C° 0.1 mm 3 mps 758 mmHg 59%
    07:00 +8°C° 0.1 mm 3 mps 757 mmHg 60%
    08:00 +9°C° 0.1 mm 3 mps 757 mmHg 59%
    09:00 +10°C° 0.1 mm 3 mps 757 mmHg 58%
    10:00 +11°C° 0.1 mm 3 mps 757 mmHg 57%
    11:00 +12°C° 0.2 mm 3 mps 757 mmHg 61%
    12:00 +12°C° 0.2 mm 3 mps 756 mmHg 65%
    13:00 +13°C° 0.2 mm 3 mps 756 mmHg 70%
    14:00 +13°C° 0.3 mm 3 mps 756 mmHg 73%
    15:00 +12°C° 0.3 mm 3 mps 756 mmHg 76%
    16:00 +12°C° 0.3 mm 3 mps 755 mmHg 79%
    17:00 +13°C° 0.1 mm 2 mps 756 mmHg 81%
    18:00 +12°C° 0.1 mm 2 mps 756 mmHg 84%
    19:00 +12°C° 0.1 mm 1 mps 756 mmHg 86%
    20:00 +11°C° 0.1 mm 1 mps 756 mmHg 87%
    21:00 +10°C° 0.1 mm 2 mps 756 mmHg 88%
    22:00 +10°C° 0.1 mm 2 mps 756 mmHg 88%
    23:00 +10°C° 0.3 mm 2 mps 756 mmHg 89%

    Tomorrow, 14 December, Friday

    Time Temperature Precipitation Wind Pressure Humidity
    00:00 +12°C° 0.3 mm 2 mps 756 mmHg 89%
    01:00 +11°C° 0.3 mm 3 mps 756 mmHg 90%
    02:00 +11°C° 0.9 mm 3 mps 756 mmHg 90%
    03:00 +11°C° 0.9 mm 3 mps 755 mmHg 89%
    04:00 +11°C° 0.9 mm 4 mps 755 mmHg 89%
    05:00 +11°C° 0.8 mm 4 mps 755 mmHg 88%
    06:00 +11°C° 0.8 mm 3 mps 755 mmHg 88%
    07:00 +11°C° 0.8 mm 3 mps 755 mmHg 88%
    08:00 +12°C° 0.1 mm 3 mps 755 mmHg 84%
    09:00 +12°C° 0.1 mm 3 mps 755 mmHg 80%
    10:00 +13°C° 0.1 mm 4 mps 755 mmHg 76%
    11:00 +14°C° 0 mm 4 mps 755 mmHg 71%
    12:00 +15°C° 0 mm 4 mps 754 mmHg 67%
    13:00 +17°C° 0 mm 4 mps 754 mmHg 62%
    14:00 +15°C° 0.1 mm 4 mps 754 mmHg 64%
    15:00 +16°C° 0.1 mm 3 mps 754 mmHg 66%
    16:00 +14°C° 0.1 mm 3 mps 754 mmHg 68%
    17:00 +14°C° 0.1 mm 3 mps 754 mmHg 70%
    18:00 +13°C° 0.1 mm 3 mps 754 mmHg 73%
    19:00 +12°C° 0.1 mm 3 mps 755 mmHg 75%
    20:00 +12°C° 0 mm 3 mps 755 mmHg 77%
    21:00 +12°C° 0 mm 3 mps 755 mmHg 78%
    22:00 +12°C° 0 mm 3 mps 755 mmHg 79%
    23:00 +12°C° 0 mm 3 mps 755 mmHg 81%

    Day after tomorrow, 15 December, Saturday

    Time Temperature Precipitation Wind Pressure Humidity
    00:00 +11°C° 0 mm 4 mps 755 mmHg 82%
    01:00 +11°C° 0 mm 4 mps 755 mmHg 84%
    02:00 +11°C° 0 mm 4 mps 755 mmHg 84%
    03:00 +11°C° 0 mm 4 mps 755 mmHg 84%
    04:00 +10°C° 0 mm 5 mps 755 mmHg 84%
    05:00 +10°C° 0 mm 5 mps 755 mmHg 83%
    06:00 +10°C° 0 mm 5 mps 756 mmHg 83%
    07:00 +10°C° 0 mm 5 mps 756 mmHg 83%
    08:00 +10°C° 0 mm 5 mps 756 mmHg 79%
    09:00 +12°C° 0 mm 4 mps 757 mmHg 76%
    10:00 +12°C° 0 mm 4 mps 757 mmHg 73%
    11:00 +12°C° 0 mm 4 mps 757 mmHg 70%
    12:00 +13°C° 0 mm 4 mps 757 mmHg 68%
    13:00 +13°C° 0 mm 3 mps 757 mmHg 66%
    14:00 +12°C° 0 mm 3 mps 757 mmHg 67%
    15:00 +12°C° 0 mm 3 mps 758 mmHg 69%
    16:00 +11°C° 0 mm 3 mps 758 mmHg 70%
    17:00 +11°C° 0 mm 3 mps 758 mmHg 71%
    18:00 +10°C° 0 mm 4 mps 759 mmHg 72%
    19:00 +10°C° 0 mm 4 mps 759 mmHg 72%
    20:00 +8°C° 0 mm 4 mps 759 mmHg 72%
    21:00 +8°C° 0 mm 4 mps 760 mmHg 72%
    22:00 +7°C° 0 mm 4 mps 760 mmHg 71%
    23:00 +7°C° 0 mm 4 mps 760 mmHg 70%

    16 December, Sunday

    Time Temperature Precipitation Wind Pressure Humidity
    00:00 +7°C° 0 mm 3 mps 760 mmHg 69%
    01:00 +7°C° 0 mm 3 mps 760 mmHg 68%
    02:00 +5°C° 0 mm 3 mps 760 mmHg 67%
    03:00 +5°C° 0 mm 3 mps 760 mmHg 66%
    04:00 +5°C° 0 mm 3 mps 760 mmHg 65%
    05:00 +5°C° 0 mm 3 mps 761 mmHg 66%
    06:00 +5°C° 0 mm 3 mps 761 mmHg 67%
    07:00 +4°C° 0 mm 3 mps 761 mmHg 68%
    08:00 +7°C° 0 mm 2 mps 762 mmHg 64%
    09:00 +8°C° 0 mm 2 mps 762 mmHg 59%
    10:00 +9°C° 0 mm 2 mps 762 mmHg 55%
    11:00 +11°C° 0 mm 1 mps 762 mmHg 50%
    12:00 +12°C° 0 mm 1 mps 761 mmHg 45%
    13:00 +13°C° 0 mm 1 mps 761 mmHg 40%
    14:00 +13°C° 0 mm 1 mps 761 mmHg 44%
    15:00 +12°C° 0 mm 1 mps 761 mmHg 48%
    16:00 +10°C° 0 mm 2 mps 761 mmHg 52%
    17:00 +10°C° 0 mm 2 mps 761 mmHg 56%
    18:00 +10°C° 0 mm 1 mps 762 mmHg 60%
    19:00 +10°C° 0 mm 1 mps 762 mmHg 64%
    20:00 +10°C° 0 mm 1 mps 762 mmHg 67%
    21:00 +9°C° 0 mm 2 mps 762 mmHg 69%
    22:00 +9°C° 0 mm 2 mps 762 mmHg 72%
    23:00 +9°C° 0 mm 2 mps 762 mmHg 74%

    17 December, Monday

    Time Temperature Precipitation Wind Pressure Humidity
    00:00 +9°C° 0 mm 2 mps 762 mmHg 75%
    01:00 +9°C° 0 mm 2 mps 761 mmHg 77%
    02:00 +9°C° 0.1 mm 2 mps 761 mmHg 78%
    03:00 +9°C° 0.1 mm 3 mps 761 mmHg 79%
    04:00 +9°C° 0.1 mm 3 mps 760 mmHg 81%
    05:00 +9°C° 0.1 mm 3 mps 760 mmHg 81%
    06:00 +10°C° 0.1 mm 3 mps 760 mmHg 82%
    07:00 +10°C° 0.1 mm 3 mps 760 mmHg 83%
    08:00 +10°C° 0.1 mm 3 mps 760 mmHg 82%
    09:00 +11°C° 0.1 mm 3 mps 760 mmHg 82%
    10:00 +13°C° 0.1 mm 2 mps 760 mmHg 81%
    11:00 +13°C° 0.1 mm 2 mps 760 mmHg 80%
    12:00 +14°C° 0.1 mm 2 mps 759 mmHg 79%
    13:00 +14°C° 0.1 mm 2 mps 759 mmHg 78%
    14:00 +14°C° 0.1 mm 2 mps 759 mmHg 79%
    15:00 +14°C° 0.1 mm 2 mps 759 mmHg 80%
    16:00 +14°C° 0.1 mm 2 mps 759 mmHg 81%
    17:00 +12°C° 0.1 mm 3 mps 760 mmHg 83%
    18:00 +11°C° 0.1 mm 3 mps 760 mmHg 86%
    19:00 +10°C° 0.1 mm 4 mps 761 mmHg 88%
    20:00 +10°C° 0.3 mm 3 mps 761 mmHg 88%
    21:00 +10°C° 0.3 mm 3 mps 761 mmHg 88%
    22:00 +9°C° 0.3 mm 3 mps 761 mmHg 87%
    23:00 +9°C° 1 mm 3 mps 761 mmHg 87%

    18 December, Tuesday

    Time Temperature Precipitation Wind Pressure Humidity
    00:00 +9°C° 1 mm 3 mps 761 mmHg 86%
    01:00 +9°C° 1 mm 3 mps 760 mmHg 86%
    02:00 +9°C° 0.5 mm 3 mps 761 mmHg 84%
    03:00 +8°C° 0.5 mm 4 mps 761 mmHg 83%
    04:00 +8°C° 0.5 mm 4 mps 761 mmHg 82%
    05:00 +8°C° 0.1 mm 4 mps 761 mmHg 80%
    06:00 +8°C° 0.1 mm 4 mps 762 mmHg 79%
    07:00 +8°C° 0.1 mm 5 mps 762 mmHg 77%
    08:00 +8°C° 0 mm 5 mps 763 mmHg 73%
    09:00 +9°C° 0 mm 6 mps 764 mmHg 68%
    10:00 +10°C° 0 mm 6 mps 764 mmHg 63%
    11:00 +10°C° 0 mm 6 mps 764 mmHg 59%
    12:00 +11°C° 0 mm 6 mps 764 mmHg 55%
    13:00 +13°C° 0 mm 5 mps 764 mmHg 51%
    14:00 +12°C° 0 mm 5 mps 765 mmHg 54%
    15:00 +12°C° 0 mm 4 mps 765 mmHg 56%
    16:00 +11°C° 0 mm 4 mps 765 mmHg 59%
    17:00 +10°C° 0 mm 3 mps 766 mmHg 63%
    18:00 +9°C° 0 mm 3 mps 766 mmHg 68%
    19:00 +9°C° 0 mm 2 mps 767 mmHg 72%
    20:00 +8°C° 0 mm 2 mps 767 mmHg 73%
    21:00 +8°C° 0 mm 2 mps 767 mmHg 74%
    22:00 +9°C° 0 mm 1 mps 767 mmHg 75%
    23:00 +9°C° 0 mm 1 mps 767 mmHg 74%
    Show more